Location: Olda
(45.8833°N, 9.5500°E)
Time: 20:45:16
(UTC+00:00)

Cosmos 2242 Rocket - Pass Details

Date: 03 March 2021
Orbit: 617 x 652 km, 82.5° (Epoch: 13 April)

Event Time Altitude Azimuth Distance (km) Brightness Sun altitude
Rises 19:05:51 0° 346° (NNW) 2,958 7.4 -20.6°
Reaches altitude 10° 19:08:10 10° 341° (NNW) 2,039 6.6 -21.0°
Maximum altitude 19:12:32 51° 266° (W) 805 4.4 -21.8°
Drops below altitude 10° 19:16:49 10° 191° (SSW) 2,001 6.1 -22.5°
Sets 19:19:04 0° 187° (S) 2,898 6.9 -22.9°
